Time,TemperatureF,DewpointF,PressureIn,WindDirection,WindDirectionDegrees,WindSpeedMPH,WindSpeedGustMPH,Humidity,HourlyPrecipIn,Conditions,Clouds,dailyrainin,SoftwareType,DateUTC
2013-07-24 00:01:00,53.4,39.0,30.06,West,263,0.0,3.0,58,0.00,CLR,,0.00,WeatherDisplay:10.37,2013-07-23 14:01:00,
2013-07-24 00:06:00,53.4,39.0,30.06,WSW,249,3.0,8.0,58,0.00,CLR,,0.00,WeatherDisplay:10.37,2013-07-23 14:06:00,
2013-07-24 00:11:00,53.4,39.0,30.07,WSW,246,0.0,6.0,58,0.00,CLR,,0.00,WeatherDisplay:10.37,2013-07-23 14:11:00,
2013-07-24 00:16:00,53.4,39.0,30.07,West,260,0.0,7.0,58,0.00,CLR,,0.00,WeatherDisplay:10.37,2013-07-23 14:16:00,
2013-07-24 00:21:00,53.4,39.0,30.07,West,261,1.0,5.0,58,0.00,CLR,,0.00,WeatherDisplay:10.37,2013-07-23 14:21:00,
2013-07-24 00:26:00,53.3,38.9,30.07,West,261,0.0,4.0,58,0.00,CLR,,0.00,WeatherDisplay:10.37,2013-07-23 14:26:00,
2013-07-24 00:31:00,53.2,38.8,30.07,West,264,0.0,5.0,58,0.00,CLR,,0.00,WeatherDisplay:10.37,2013-07-23 14:31:00,
2013-07-24 00:36:00,53.2,38.8,30.07,West,260,0.0,4.0,58,0.00,CLR,,0.00,WeatherDisplay:10.37,2013-07-23 14:36:00,
2013-07-24 00:41:00,53.2,38.8,30.07,West,263,0.0,3.0,58,0.00,CLR,,0.00,WeatherDisplay:10.37,2013-07-23 14:41:00,
2013-07-24 00:46:00,53.2,38.8,30.07,West,261,0.0,2.0,58,0.00,CLR,,0.00,WeatherDisplay:10.37,2013-07-23 14:46:00,
2013-07-24 00:51:00,53.1,38.7,30.07,WSW,251,3.0,8.0,58,0.00,CLR,,0.00,WeatherDisplay:10.37,2013-07-23 14:51:00,
2013-07-24 00:56:00,52.9,38.5,30.07,West,267,0.0,3.0,58,0.00,CLR,,0.00,WeatherDisplay:10.37,2013-07-23 14:56:00,
2013-07-24 01:01:00,52.9,38.5,30.07,West,279,1.0,5.0,58,0.00,CLR,,0.00,WeatherDisplay:10.37,2013-07-23 15:01:00,
2013-07-24 01:06:00,52.9,38.5,30.07,WSW,253,1.0,5.0,58,0.00,CLR,,0.00,WeatherDisplay:10.37,2013-07-23 15:06:00,
2013-07-24 01:11:00,52.9,38.5,30.08,West,261,1.0,6.0,58,0.00,CLR,,0.00,WeatherDisplay:10.37,2013-07-23 15:11:00,
2013-07-24 01:16:00,52.9,38.5,30.07,West,269,0.0,1.0,58,0.00,CLR,,0.00,WeatherDisplay:10.37,2013-07-23 15:16:00,
2013-07-24 01:21:00,52.9,38.5,30.07,West,260,1.0,5.0,58,0.00,CLR,,0.00,WeatherDisplay:10.37,2013-07-23 15:21:00,
2013-07-24 01:26:00,52.9,38.5,30.07,West,260,0.0,3.0,58,0.00,CLR,,0.00,WeatherDisplay:10.37,2013-07-23 15:26:00,
2013-07-24 01:31:00,52.9,38.5,30.07,West,272,0.0,1.0,58,0.00,CLR,,0.00,WeatherDisplay:10.37,2013-07-23 15:31:00,
2013-07-24 01:36:00,52.9,38.5,30.07,WNW,297,0.0,0.0,58,0.00,CLR,,0.00,WeatherDisplay:10.37,2013-07-23 15:36:00,
2013-07-24 01:41:00,52.9,38.5,30.07,WNW,289,0.0,2.0,58,0.00,CLR,,0.00,WeatherDisplay:10.37,2013-07-23 15:41:00,
2013-07-24 01:46:00,52.8,38.4,30.07,West,267,0.0,2.0,58,0.00,CLR,,0.00,WeatherDisplay:10.37,2013-07-23 15:46:00,
2013-07-24 01:51:00,52.7,38.3,30.08,West,272,0.0,3.0,58,0.00,CLR,,0.00,WeatherDisplay:10.37,2013-07-23 15:51:00,
2013-07-24 01:56:00,52.7,38.3,30.07,West,271,1.0,4.0,58,0.00,CLR,,0.00,WeatherDisplay:10.37,2013-07-23 15:56:00,
2013-07-24 02:01:00,52.9,38.5,30.07,WSW,248,0.0,3.0,58,0.00,CLR,,0.00,WeatherDisplay:10.37,2013-07-23 16:01:00,
2013-07-24 02:06:00,52.9,38.5,30.07,WSW,253,0.0,5.0,58,0.00,CLR,,0.00,WeatherDisplay:10.37,2013-07-23 16:06:00,
2013-07-24 02:11:00,52.9,38.5,30.07,West,272,0.0,5.0,58,0.00,CLR,,0.00,WeatherDisplay:10.37,2013-07-23 16:11:00,
2013-07-24 02:16:00,53.2,38.8,30.07,NW,304,0.0,4.0,58,0.00,CLR,,0.00,WeatherDisplay:10.37,2013-07-23 16:16:00,
2013-07-24 02:21:00,53.2,38.8,30.07,WNW,298,1.0,5.0,58,0.00,CLR,,0.00,WeatherDisplay:10.37,2013-07-23 16:21:00,
2013-07-24 02:26:00,53.2,38.8,30.07,WNW,283,1.0,5.0,58,0.00,CLR,,0.00,WeatherDisplay:10.37,2013-07-23 16:26:00,
2013-07-24 02:31:00,53.4,39.0,30.07,West,275,0.0,3.0,58,0.00,CLR,,0.00,WeatherDisplay:10.37,2013-07-23 16:31:00,
2013-07-24 02:36:00,53.4,39.0,30.07,WSW,252,0.0,7.0,58,0.00,CLR,,0.00,WeatherDisplay:10.37,2013-07-23 16:36:00,
2013-07-24 02:41:00,53.4,39.0,30.07,WSW,255,0.0,7.0,58,0.00,CLR,,0.00,WeatherDisplay:10.37,2013-07-23 16:41:00,
2013-07-24 02:46:00,53.8,39.3,30.07,West,264,1.0,5.0,58,0.00,CLR,,0.00,WeatherDisplay:10.37,2013-07-23 16:46:00,
2013-07-24 02:51:00,53.8,39.3,30.07,West,260,2.0,5.0,58,0.00,CLR,,0.00,WeatherDisplay:10.37,2013-07-23 16:51:00,
2013-07-24 02:56:00,53.8,39.4,30.07,WSW,257,0.0,6.0,58,0.00,CLR,,0.00,WeatherDisplay:10.37,2013-07-23 16:56:00,
2013-07-24 03:01:00,54.0,39.5,30.08,West,280,2.0,7.0,58,0.00,CLR,,0.00,WeatherDisplay:10.37,2013-07-23 17:01:00,
2013-07-24 03:06:00,54.0,39.5,30.08,West,270,6.0,11.0,58,0.00,CLR,,0.00,WeatherDisplay:10.37,2013-07-23 17:06:00,
2013-07-24 03:11:00,54.1,39.6,30.08,West,261,2.0,5.0,58,0.00,CLR,,0.00,WeatherDisplay:10.37,2013-07-23 17:11:00,
2013-07-24 03:16:00,54.1,39.7,30.08,West,261,2.0,6.0,58,0.00,CLR,,0.00,WeatherDisplay:10.37,2013-07-23 17:16:00,
2013-07-24 03:21:00,54.1,39.7,30.08,West,260,1.0,10.0,58,0.00,CLR,,0.00,WeatherDisplay:10.37,2013-07-23 17:21:00,
2013-07-24 03:26:00,54.2,39.8,30.08,WSW,252,0.0,6.0,58,0.00,CLR,,0.00,WeatherDisplay:10.37,2013-07-23 17:26:00,
2013-07-24 03:31:00,54.3,39.8,30.08,WSW,243,2.0,10.0,58,0.00,CLR,,0.00,WeatherDisplay:10.37,2013-07-23 17:31:00,
2013-07-24 03:36:00,54.3,39.8,30.08,WSW,240,2.0,7.0,58,0.00,CLR,,0.00,WeatherDisplay:10.37,2013-07-23 17:36:00,
2013-07-24 03:41:00,54.3,39.8,30.08,WSW,258,3.0,11.0,58,0.00,CLR,,0.00,WeatherDisplay:10.37,2013-07-23 17:41:00,
2013-07-24 03:46:00,54.3,39.4,30.08,West,260,5.0,9.0,57,0.00,CLR,,0.00,WeatherDisplay:10.37,2013-07-23 17:46:00,
2013-07-24 03:51:00,54.3,39.4,30.08,WSW,253,1.0,9.0,57,0.00,CLR,,0.00,WeatherDisplay:10.37,2013-07-23 17:51:00,
2013-07-24 03:56:00,54.5,39.6,30.09,WSW,252,1.0,5.0,57,0.00,CLR,,0.00,WeatherDisplay:10.37,2013-07-23 17:56:00,
2013-07-24 04:01:00,54.4,39.5,30.09,WSW,245,2.0,7.0,57,0.00,CLR,,0.00,WeatherDisplay:10.37,2013-07-23 18:01:00,
2013-07-24 04:07:00,54.5,39.6,30.09,WSW,256,2.0,10.0,57,0.00,CLR,,0.00,WeatherDisplay:10.37,2013-07-23 18:07:00,
2013-07-24 04:11:00,54.5,39.6,30.09,WSW,253,1.0,7.0,57,0.00,CLR,,0.00,WeatherDisplay:10.37,2013-07-23 18:11:00,
2013-07-24 04:16:00,54.5,39.6,30.09,WSW,240,1.0,6.0,57,0.00,CLR,,0.00,WeatherDisplay:10.37,2013-07-23 18:16:00,
2013-07-24 04:21:00,54.5,40.0,30.08,WSW,254,3.0,9.0,58,0.00,CLR,,0.00,WeatherDisplay:10.37,2013-07-23 18:21:00,
2013-07-24 04:26:00,54.5,40.0,30.08,WSW,242,1.0,8.0,58,0.00,CLR,,0.00,WeatherDisplay:10.37,2013-07-23 18:26:00,
2013-07-24 04:31:00,54.5,40.0,30.09,WSW,242,3.0,8.0,58,0.00,CLR,,0.00,WeatherDisplay:10.37,2013-07-23 18:31:00,
2013-07-24 04:36:00,54.5,40.0,30.09,WSW,249,2.0,8.0,58,0.00,CLR,,0.00,WeatherDisplay:10.37,2013-07-23 18:36:00,
2013-07-24 04:41:00,54.4,39.9,30.09,West,259,1.0,6.0,58,0.00,CLR,,0.00,WeatherDisplay:10.37,2013-07-23 18:41:00,
2013-07-24 04:46:00,54.3,39.8,30.09,West,268,3.0,10.0,58,0.00,CLR,,0.00,WeatherDisplay:10.37,2013-07-23 18:46:00,
2013-07-24 04:56:00,54.3,39.9,30.09,WSW,248,3.0,13.0,58,0.00,CLR,,0.00,WeatherDisplay:10.37,2013-07-23 18:56:00,
2013-07-24 05:01:00,54.4,40.0,30.09,WSW,253,1.0,10.0,58,0.00,CLR,,0.00,WeatherDisplay:10.37,2013-07-23 19:01:00,
2013-07-24 05:06:00,54.5,40.0,30.09,WSW,250,3.0,12.0,58,0.00,CLR,,0.00,WeatherDisplay:10.37,2013-07-23 19:06:00,
2013-07-24 05:11:00,54.5,40.0,30.09,SW,222,1.0,5.0,58,0.00,CLR,,0.00,WeatherDisplay:10.37,2013-07-23 19:11:00,
2013-07-24 05:21:00,54.4,39.9,30.09,WSW,246,1.0,8.0,58,0.00,CLR,,0.00,WeatherDisplay:10.37,2013-07-23 19:21:00,
2013-07-24 05:26:00,54.3,40.3,30.10,West,267,3.0,11.0,59,0.00,CLR,,0.00,WeatherDisplay:10.37,2013-07-23 19:26:00,
2013-07-24 05:36:00,54.3,40.3,30.10,SW,229,2.0,11.0,59,0.00,CLR,,0.00,WeatherDisplay:10.37,2013-07-23 19:36:00,
2013-07-24 05:41:00,54.3,40.3,30.10,SW,229,2.0,9.0,59,0.00,CLR,,0.00,WeatherDisplay:10.37,2013-07-23 19:41:00,
2013-07-24 05:51:00,54.3,40.3,30.11,SW,235,2.0,6.0,59,0.00,CLR,,0.00,WeatherDisplay:10.37,2013-07-23 19:51:00,
2013-07-24 05:56:00,54.3,40.3,30.11,WSW,239,1.0,8.0,59,0.00,CLR,,0.00,WeatherDisplay:10.37,2013-07-23 19:56:00,
2013-07-24 06:01:00,54.3,40.3,30.11,WSW,243,0.0,12.0,59,0.00,CLR,,0.00,WeatherDisplay:10.37,2013-07-23 20:01:00,
2013-07-24 06:06:00,54.3,40.3,30.11,SW,227,1.0,12.0,59,0.00,CLR,,0.00,WeatherDisplay:10.37,2013-07-23 20:06:00,
2013-07-24 06:11:00,54.3,40.3,30.11,SW,234,3.0,11.0,59,0.00,CLR,,0.00,WeatherDisplay:10.37,2013-07-23 20:11:00,
2013-07-24 06:21:00,54.3,40.3,30.11,WSW,245,6.0,11.0,59,0.00,CLR,,0.00,WeatherDisplay:10.37,2013-07-23 20:21:00,
2013-07-24 06:26:00,54.3,40.3,30.12,WSW,241,0.0,7.0,59,0.00,CLR,,0.00,WeatherDisplay:10.37,2013-07-23 20:26:00,
2013-07-24 06:41:00,54.3,40.7,30.13,SW,221,2.0,8.0,60,0.00,CLR,,0.00,WeatherDisplay:10.37,2013-07-23 20:41:00,
2013-07-24 06:46:00,54.3,40.7,30.13,SW,221,1.0,8.0,60,0.00,CLR,,0.00,WeatherDisplay:10.37,2013-07-23 20:46:00,
2013-07-24 06:51:00,54.3,40.7,30.13,SW,225,5.0,8.0,60,0.00,CLR,,0.00,WeatherDisplay:10.37,2013-07-23 20:51:00,
2013-07-24 06:56:00,54.3,40.7,30.13,SW,228,2.0,7.0,60,0.00,CLR,,0.00,WeatherDisplay:10.37,2013-07-23 20:56:00,
2013-07-24 07:11:00,54.5,40.9,30.13,SSW,205,1.0,14.0,60,0.00,CLR,,0.00,WeatherDisplay:10.37,2013-07-23 21:11:00,
2013-07-24 07:17:00,54.4,40.8,30.13,WSW,257,3.0,9.0,60,0.00,CLR,,0.00,WeatherDisplay:10.37,2013-07-23 21:17:00,
2013-07-24 07:21:00,54.4,40.8,30.13,SW,233,2.0,8.0,60,0.00,CLR,,0.00,WeatherDisplay:10.37,2013-07-23 21:21:00,
2013-07-24 07:26:00,54.5,40.9,30.14,SW,236,5.0,10.0,60,0.00,CLR,,0.00,WeatherDisplay:10.37,2013-07-23 21:26:00,
2013-07-24 07:36:00,54.5,41.3,30.14,SW,228,2.0,9.0,61,0.00,CLR,,0.00,WeatherDisplay:10.37,2013-07-23 21:36:00,
2013-07-24 07:46:00,54.5,41.3,30.15,WSW,237,0.0,6.0,61,0.00,CLR,,0.00,WeatherDisplay:10.37,2013-07-23 21:46:00,
2013-07-24 07:56:00,54.7,41.1,30.15,SW,224,1.0,8.0,60,0.00,CLR,,0.00,WeatherDisplay:10.37,2013-07-23 21:56:00,
2013-07-24 08:01:00,54.9,41.2,30.15,SW,224,5.0,13.0,60,0.00,CLR,,0.00,WeatherDisplay:10.37,2013-07-23 22:01:00,
2013-07-24 08:07:00,54.9,41.3,30.15,SW,233,3.0,6.0,60,0.00,CLR,,0.00,WeatherDisplay:10.37,2013-07-23 22:07:00,
2013-07-24 08:11:00,55.0,41.4,30.16,SW,214,5.0,11.0,60,0.00,CLR,,0.00,WeatherDisplay:10.37,2013-07-23 22:11:00,
2013-07-24 08:16:00,55.0,41.8,30.16,SSW,196,0.0,5.0,61,0.00,CLR,,0.00,WeatherDisplay:10.37,2013-07-23 22:16:00,
2013-07-24 08:21:00,55.0,41.8,30.16,SW,231,7.0,12.0,61,0.00,CLR,,0.00,WeatherDisplay:10.37,2013-07-23 22:21:00,
2013-07-24 08:31:00,55.0,41.8,30.16,SSW,210,1.0,8.0,61,0.00,CLR,,0.00,WeatherDisplay:10.37,2013-07-23 22:31:00,
2013-07-24 08:36:00,55.2,42.0,30.16,SSW,210,5.0,13.0,61,0.00,CLR,,0.00,WeatherDisplay:10.37,2013-07-23 22:36:00,
2013-07-24 08:41:00,55.2,42.4,30.16,SW,228,1.0,12.0,62,0.00,CLR,,0.00,WeatherDisplay:10.37,2013-07-23 22:41:00,
2013-07-24 08:46:00,55.3,42.5,30.17,SW,229,1.0,9.0,62,0.00,CLR,,0.00,WeatherDisplay:10.37,2013-07-23 22:46:00,
2013-07-24 08:51:00,55.5,42.6,30.17,WSW,250,2.0,11.0,62,0.00,CLR,,0.00,WeatherDisplay:10.37,2013-07-23 22:51:00,
2013-07-24 09:01:00,55.9,42.7,30.17,SW,231,6.0,8.0,61,0.00,CLR,,0.00,WeatherDisplay:10.37,2013-07-23 23:01:00,
2013-07-24 09:06:00,55.9,42.7,30.17,SW,233,1.0,13.0,61,0.00,CLR,,0.00,WeatherDisplay:10.37,2013-07-23 23:06:00,
2013-07-24 09:11:00,55.9,42.7,30.17,WSW,237,3.0,13.0,61,0.00,CLR,,0.00,WeatherDisplay:10.37,2013-07-23 23:11:00,
2013-07-24 09:16:00,56.2,42.9,30.17,WSW,250,3.0,16.0,61,0.00,CLR,,0.00,WeatherDisplay:10.37,2013-07-23 23:16:00,
2013-07-24 09:26:00,56.9,43.6,30.18,SW,217,2.0,12.0,61,0.00,CLR,,0.00,WeatherDisplay:10.37,2013-07-23 23:26:00,
2013-07-24 09:31:00,57.0,43.7,30.18,SW,217,3.0,15.0,61,0.00,CLR,,0.00,WeatherDisplay:10.37,2013-07-23 23:31:00,
2013-07-24 09:36:00,57.2,43.9,30.18,SSW,204,5.0,15.0,61,0.00,CLR,,0.00,WeatherDisplay:10.37,2013-07-23 23:36:00,
2013-07-24 09:41:00,57.0,43.7,30.18,SSW,210,0.0,10.0,61,0.00,CLR,,0.00,WeatherDisplay:10.37,2013-07-23 23:41:00,
2013-07-24 09:46:00,57.0,43.7,30.18,SW,225,2.0,10.0,61,0.00,CLR,,0.00,WeatherDisplay:10.37,2013-07-23 23:46:00,
2013-07-24 09:51:00,57.0,43.3,30.18,SW,224,2.0,9.0,60,0.00,CLR,,0.00,WeatherDisplay:10.37,2013-07-23 23:51:00,
2013-07-24 09:56:00,57.0,43.7,30.18,SW,231,0.0,9.0,61,0.00,CLR,,0.00,WeatherDisplay:10.37,2013-07-23 23:56:00,
2013-07-24 10:06:00,57.0,43.7,30.19,WSW,240,2.0,8.0,61,0.00,CLR,,0.00,WeatherDisplay:10.37,2013-07-24 00:06:00,
2013-07-24 10:11:00,57.1,43.8,30.18,SW,228,6.0,12.0,61,0.00,CLR,,0.00,WeatherDisplay:10.37,2013-07-24 00:11:00,
2013-07-24 10:16:00,57.4,44.0,30.18,SW,218,3.0,8.0,61,0.00,CLR,,0.00,WeatherDisplay:10.37,2013-07-24 00:16:00,
2013-07-24 10:26:00,57.7,44.4,30.19,WSW,240,3.0,10.0,61,0.00,CLR,,0.00,WeatherDisplay:10.37,2013-07-24 00:26:00,
2013-07-24 10:31:00,58.1,44.7,30.18,SW,225,2.0,10.0,61,0.00,CLR,,0.00,WeatherDisplay:10.37,2013-07-24 00:31:00,
2013-07-24 10:36:00,58.5,44.7,30.18,SSW,211,1.0,6.0,60,0.00,CLR,,0.00,WeatherDisplay:10.37,2013-07-24 00:36:00,
2013-07-24 10:41:00,58.8,45.0,30.19,SW,215,2.0,8.0,60,0.00,CLR,,0.00,WeatherDisplay:10.37,2013-07-24 00:41:00,
2013-07-24 10:51:00,58.8,45.0,30.19,SW,231,2.0,16.0,60,0.00,CLR,,0.00,WeatherDisplay:10.37,2013-07-24 00:51:00,
2013-07-24 10:56:00,58.8,45.0,30.18,SW,230,5.0,12.0,60,0.00,CLR,,0.00,WeatherDisplay:10.37,2013-07-24 00:56:00,
2013-07-24 11:01:00,58.7,44.8,30.18,SW,232,6.0,13.0,60,0.00,CLR,,0.00,WeatherDisplay:10.37,2013-07-24 01:01:00,
2013-07-24 11:06:00,58.8,45.0,30.18,SW,224,3.0,11.0,60,0.00,CLR,,0.00,WeatherDisplay:10.37,2013-07-24 01:06:00,
2013-07-24 11:16:00,59.0,45.6,30.18,SW,227,3.0,12.0,61,0.00,CLR,,0.00,WeatherDisplay:10.37,2013-07-24 01:16:00,
2013-07-24 11:21:00,59.4,45.9,30.18,SW,217,2.0,12.0,61,0.00,CLR,,0.00,WeatherDisplay:10.37,2013-07-24 01:21:00,
2013-07-24 11:26:00,59.5,45.6,30.18,SW,221,1.0,8.0,60,0.00,CLR,,0.00,WeatherDisplay:10.37,2013-07-24 01:26:00,
2013-07-24 11:31:00,59.9,46.0,30.18,SW,220,1.0,10.0,60,0.00,CLR,,0.00,WeatherDisplay:10.37,2013-07-24 01:31:00,
2013-07-24 11:36:00,60.3,46.3,30.18,SW,224,7.0,13.0,60,0.00,CLR,,0.00,WeatherDisplay:10.37,2013-07-24 01:36:00,
2013-07-24 11:41:00,61.0,47.0,30.18,SW,221,2.0,13.0,60,0.00,CLR,,0.00,WeatherDisplay:10.37,2013-07-24 01:41:00,
2013-07-24 11:46:00,61.2,47.2,30.18,SSW,210,6.0,13.0,60,0.00,CLR,,0.00,WeatherDisplay:10.37,2013-07-24 01:46:00,
2013-07-24 11:56:00,61.3,46.9,30.17,SW,216,1.0,6.0,59,0.00,CLR,,0.00,WeatherDisplay:10.37,2013-07-24 01:56:00,
2013-07-24 12:01:00,61.4,47.0,30.17,SSW,207,6.0,11.0,59,0.00,CLR,,0.00,WeatherDisplay:10.37,2013-07-24 02:01:00,
2013-07-24 12:06:00,61.8,47.7,30.17,SSW,209,2.0,10.0,60,0.00,CLR,,0.00,WeatherDisplay:10.37,2013-07-24 02:06:00,
2013-07-24 12:11:00,62.4,47.9,30.17,WSW,242,2.0,18.0,59,0.00,CLR,,0.00,WeatherDisplay:10.37,2013-07-24 02:11:00,
2013-07-24 12:21:00,63.3,48.3,30.17,SW,217,3.0,16.0,58,0.00,CLR,,0.00,WeatherDisplay:10.37,2013-07-24 02:21:00,
2013-07-24 12:26:00,63.7,48.6,30.16,SSW,193,5.0,11.0,58,0.00,CLR,,0.00,WeatherDisplay:10.37,2013-07-24 02:26:00,
2013-07-24 12:31:00,64.1,49.0,30.16,South,186,2.0,13.0,58,0.00,CLR,,0.00,WeatherDisplay:10.37,2013-07-24 02:31:00,
2013-07-24 12:36:00,64.3,49.2,30.16,South,188,2.0,13.0,58,0.00,CLR,,0.00,WeatherDisplay:10.37,2013-07-24 02:36:00,
2013-07-24 12:41:00,64.8,49.6,30.16,SW,223,5.0,8.0,58,0.00,CLR,,0.00,WeatherDisplay:10.37,2013-07-24 02:41:00,
2013-07-24 12:46:00,64.8,49.2,30.17,SW,222,2.0,14.0,57,0.00,CLR,,0.00,WeatherDisplay:10.37,2013-07-24 02:46:00,
2013-07-24 12:51:00,64.6,48.5,30.16,SW,216,5.0,14.0,56,0.00,CLR,,0.00,WeatherDisplay:10.37,2013-07-24 02:51:00,
2013-07-24 13:01:00,64.2,48.7,30.16,SW,228,6.0,12.0,57,0.00,CLR,,0.00,WeatherDisplay:10.37,2013-07-24 03:01:00,
2013-07-24 13:06:00,64.5,48.9,30.16,SSW,204,3.0,9.0,57,0.00,CLR,,0.00,WeatherDisplay:10.37,2013-07-24 03:06:00,
2013-07-24 13:11:00,64.9,49.3,30.16,SSW,192,5.0,12.0,57,0.00,CLR,,0.00,WeatherDisplay:10.37,2013-07-24 03:11:00,
2013-07-24 13:16:00,65.1,49.0,30.16,SSW,204,7.0,17.0,56,0.00,CLR,,0.00,WeatherDisplay:10.37,2013-07-24 03:16:00,
2013-07-24 13:21:00,64.9,48.9,30.16,SSW,213,5.0,12.0,56,0.00,CLR,,0.00,WeatherDisplay:10.37,2013-07-24 03:21:00,
2013-07-24 13:26:00,65.1,49.0,30.16,SW,217,9.0,15.0,56,0.00,CLR,,0.00,WeatherDisplay:10.37,2013-07-24 03:26:00,
2013-07-24 13:36:00,65.1,49.0,30.16,SSW,211,5.0,10.0,56,0.00,CLR,,0.00,WeatherDisplay:10.37,2013-07-24 03:36:00,
2013-07-24 13:41:00,65.3,49.2,30.16,SSW,199,3.0,14.0,56,0.00,CLR,,0.00,WeatherDisplay:10.37,2013-07-24 03:41:00,
2013-07-24 13:46:00,65.5,49.3,30.16,SSW,211,8.0,14.0,56,0.00,CLR,,0.00,WeatherDisplay:10.37,2013-07-24 03:46:00,
2013-07-24 13:56:00,65.3,48.7,30.16,SW,227,7.0,17.0,55,0.00,CLR,,0.00,WeatherDisplay:10.37,2013-07-24 03:56:00,
2013-07-24 14:01:00,64.9,48.3,30.16,SW,219,3.0,14.0,55,0.00,CLR,,0.00,WeatherDisplay:10.37,2013-07-24 04:01:00,
2013-07-24 14:06:00,64.5,48.0,30.16,SW,218,3.0,16.0,55,0.00,CLR,,0.00,WeatherDisplay:10.37,2013-07-24 04:06:00,
2013-07-24 14:11:00,64.0,48.0,30.16,SW,216,3.0,7.0,56,0.00,CLR,,0.00,WeatherDisplay:10.37,2013-07-24 04:11:00,
2013-07-24 14:16:00,63.7,47.7,30.17,SSW,211,5.0,14.0,56,0.00,CLR,,0.00,WeatherDisplay:10.37,2013-07-24 04:16:00,
2013-07-24 14:21:00,63.3,47.3,30.17,SSW,208,7.0,11.0,56,0.00,CLR,,0.00,WeatherDisplay:10.37,2013-07-24 04:21:00,
2013-07-24 14:26:00,63.1,47.1,30.17,SW,219,3.0,12.0,56,0.00,CLR,,0.00,WeatherDisplay:10.37,2013-07-24 04:26:00,
2013-07-24 14:31:00,62.8,46.8,30.17,SW,220,5.0,8.0,56,0.00,CLR,,0.00,WeatherDisplay:10.37,2013-07-24 04:31:00,
2013-07-24 14:36:00,62.5,47.1,30.17,SW,219,5.0,17.0,57,0.00,CLR,,0.00,WeatherDisplay:10.37,2013-07-24 04:36:00,
2013-07-24 14:41:00,62.4,47.0,30.17,SW,215,6.0,13.0,57,0.00,CLR,,0.00,WeatherDisplay:10.37,2013-07-24 04:41:00,
2013-07-24 14:46:00,62.2,46.8,30.17,SSW,212,1.0,10.0,57,0.00,CLR,,0.00,WeatherDisplay:10.37,2013-07-24 04:46:00,
2013-07-24 14:51:00,62.2,46.8,30.16,SW,222,6.0,10.0,57,0.00,CLR,,0.00,WeatherDisplay:10.37,2013-07-24 04:51:00,
2013-07-24 14:56:00,62.0,47.1,30.17,SW,216,2.0,21.0,58,0.00,CLR,,0.00,WeatherDisplay:10.37,2013-07-24 04:56:00,
2013-07-24 15:01:00,62.1,47.1,30.17,SSW,213,3.0,8.0,58,0.00,CLR,,0.00,WeatherDisplay:10.37,2013-07-24 05:01:00,
2013-07-24 15:06:00,61.9,46.9,30.17,SW,220,1.0,8.0,58,0.00,CLR,,0.00,WeatherDisplay:10.37,2013-07-24 05:06:00,
2013-07-24 15:11:00,61.9,47.0,30.17,SW,222,6.0,9.0,58,0.00,CLR,,0.00,WeatherDisplay:10.37,2013-07-24 05:11:00,
2013-07-24 15:16:00,61.9,47.0,30.17,SW,230,5.0,14.0,58,0.00,CLR,,0.00,WeatherDisplay:10.37,2013-07-24 05:16:00,
2013-07-24 15:21:00,61.9,46.9,30.17,SW,224,0.0,5.0,58,0.00,CLR,,0.00,WeatherDisplay:10.37,2013-07-24 05:21:00,
2013-07-24 15:26:00,61.9,46.9,30.17,SSW,195,1.0,17.0,58,0.00,CLR,,0.00,WeatherDisplay:10.37,2013-07-24 05:26:00,
2013-07-24 15:31:00,61.9,46.9,30.17,SSW,211,3.0,10.0,58,0.00,CLR,,0.00,WeatherDisplay:10.37,2013-07-24 05:31:00,
2013-07-24 15:36:00,61.9,46.9,30.17,SW,218,3.0,8.0,58,0.00,CLR,,0.00,WeatherDisplay:10.37,2013-07-24 05:36:00,
2013-07-24 15:41:00,61.9,46.9,30.17,SW,222,5.0,9.0,58,0.00,CLR,,0.00,WeatherDisplay:10.37,2013-07-24 05:41:00,
2013-07-24 15:46:00,61.7,46.8,30.18,SSW,213,3.0,7.0,58,0.00,CLR,,0.00,WeatherDisplay:10.37,2013-07-24 05:46:00,
2013-07-24 15:51:00,61.5,46.6,30.17,SSW,202,7.0,17.0,58,0.00,CLR,,0.00,WeatherDisplay:10.37,2013-07-24 05:51:00,
2013-07-24 15:56:00,61.5,46.6,30.17,SSW,210,3.0,7.0,58,0.00,CLR,,0.00,WeatherDisplay:10.37,2013-07-24 05:56:00,
2013-07-24 16:01:00,61.3,46.9,30.18,SW,216,1.0,6.0,59,0.00,CLR,,0.00,WeatherDisplay:10.37,2013-07-24 06:01:00,
2013-07-24 16:06:00,61.3,46.9,30.18,SW,215,3.0,7.0,59,0.00,CLR,,0.00,WeatherDisplay:10.37,2013-07-24 06:06:00,
2013-07-24 16:11:00,61.1,46.6,30.18,SSW,208,2.0,8.0,59,0.00,CLR,,0.00,WeatherDisplay:10.37,2013-07-24 06:11:00,
2013-07-24 16:16:00,61.0,46.5,30.18,SSW,207,2.0,10.0,59,0.00,CLR,,0.00,WeatherDisplay:10.37,2013-07-24 06:16:00,
2013-07-24 16:21:00,61.0,46.5,30.18,SSW,204,5.0,11.0,59,0.00,CLR,,0.00,WeatherDisplay:10.37,2013-07-24 06:21:00,
2013-07-24 16:26:00,60.9,46.5,30.18,SSW,213,3.0,10.0,59,0.00,CLR,,0.00,WeatherDisplay:10.37,2013-07-24 06:26:00,
2013-07-24 16:31:00,60.6,46.2,30.18,SSW,212,2.0,8.0,59,0.00,CLR,,0.00,WeatherDisplay:10.37,2013-07-24 06:31:00,
2013-07-24 16:36:00,60.6,46.2,30.19,SSW,207,2.0,9.0,59,0.00,CLR,,0.00,WeatherDisplay:10.37,2013-07-24 06:36:00,
2013-07-24 16:41:00,60.6,46.2,30.19,SSW,195,3.0,12.0,59,0.00,CLR,,0.00,WeatherDisplay:10.37,2013-07-24 06:41:00,
2013-07-24 16:46:00,60.4,46.0,30.19,SW,214,5.0,10.0,59,0.00,CLR,,0.00,WeatherDisplay:10.37,2013-07-24 06:46:00,
2013-07-24 16:51:00,60.4,46.0,30.19,SW,234,1.0,7.0,59,0.00,CLR,,0.00,WeatherDisplay:10.37,2013-07-24 06:51:00,
2013-07-24 16:56:00,60.1,45.7,30.19,SW,226,3.0,7.0,59,0.00,CLR,,0.00,WeatherDisplay:10.37,2013-07-24 06:56:00,
2013-07-24 17:06:00,59.9,45.5,30.19,SW,224,3.0,7.0,59,0.00,CLR,,0.00,WeatherDisplay:10.37,2013-07-24 07:06:00,
2013-07-24 17:11:00,59.7,45.4,30.19,SW,235,2.0,5.0,59,0.00,CLR,,0.00,WeatherDisplay:10.37,2013-07-24 07:11:00,
2013-07-24 17:16:00,59.7,45.4,30.19,WSW,238,2.0,7.0,59,0.00,CLR,,0.00,WeatherDisplay:10.37,2013-07-24 07:16:00,
2013-07-24 17:26:00,59.5,45.2,30.20,SW,220,2.0,10.0,59,0.00,CLR,,0.00,WeatherDisplay:10.37,2013-07-24 07:26:00,
2013-07-24 17:31:00,59.5,45.2,30.19,SW,218,6.0,12.0,59,0.00,CLR,,0.00,WeatherDisplay:10.37,2013-07-24 07:31:00,
2013-07-24 17:41:00,59.4,45.0,30.20,SW,218,0.0,3.0,59,0.00,CLR,,0.00,WeatherDisplay:10.37,2013-07-24 07:41:00,
2013-07-24 17:46:00,59.4,45.0,30.20,SW,219,1.0,5.0,59,0.00,CLR,,0.00,WeatherDisplay:10.37,2013-07-24 07:46:00,
2013-07-24 17:52:00,59.3,45.0,30.20,SW,232,0.0,5.0,59,0.00,CLR,,0.00,WeatherDisplay:10.37,2013-07-24 07:52:00,
2013-07-24 17:56:00,59.2,44.9,30.20,SW,231,0.0,5.0,59,0.00,CLR,,0.00,WeatherDisplay:10.37,2013-07-24 07:56:00,
2013-07-24 18:01:00,59.2,44.9,30.20,SW,220,1.0,5.0,59,0.00,CLR,,0.00,WeatherDisplay:10.37,2013-07-24 08:01:00,
2013-07-24 18:06:00,59.0,44.7,30.20,WSW,242,2.0,5.0,59,0.00,CLR,,0.00,WeatherDisplay:10.37,2013-07-24 08:06:00,
2013-07-24 18:12:00,59.0,44.7,30.20,SW,228,1.0,6.0,59,0.00,CLR,,0.00,WeatherDisplay:10.37,2013-07-24 08:12:00,
2013-07-24 18:21:00,58.8,44.5,30.21,SW,223,1.0,8.0,59,0.00,CLR,,0.00,WeatherDisplay:10.37,2013-07-24 08:21:00,
2013-07-24 18:26:00,58.8,44.5,30.20,WSW,242,0.0,4.0,59,0.00,CLR,,0.00,WeatherDisplay:10.37,2013-07-24 08:26:00,
2013-07-24 18:31:00,58.8,44.5,30.21,WSW,243,0.0,4.0,59,0.00,CLR,,0.00,WeatherDisplay:10.37,2013-07-24 08:31:00,
2013-07-24 18:36:00,58.8,44.5,30.21,SW,227,3.0,9.0,59,0.00,CLR,,0.00,WeatherDisplay:10.37,2013-07-24 08:36:00,
2013-07-24 18:41:00,58.6,44.3,30.21,SW,226,0.0,5.0,59,0.00,CLR,,0.00,WeatherDisplay:10.37,2013-07-24 08:41:00,
2013-07-24 18:46:00,58.5,44.2,30.21,SW,227,2.0,6.0,59,0.00,CLR,,0.00,WeatherDisplay:10.37,2013-07-24 08:46:00,
2013-07-24 18:51:00,58.5,44.2,30.21,SW,221,1.0,5.0,59,0.00,CLR,,0.00,WeatherDisplay:10.37,2013-07-24 08:51:00,
2013-07-24 18:56:00,58.3,44.0,30.21,SW,219,1.0,7.0,59,0.00,CLR,,0.00,WeatherDisplay:10.37,2013-07-24 08:56:00,
2013-07-24 19:01:00,58.3,44.0,30.21,SW,222,2.0,6.0,59,0.00,CLR,,0.00,WeatherDisplay:10.37,2013-07-24 09:01:00,
2013-07-24 19:06:00,58.1,43.8,30.21,SW,221,5.0,8.0,59,0.00,CLR,,0.00,WeatherDisplay:10.37,2013-07-24 09:06:00,
2013-07-24 19:11:00,58.1,43.8,30.22,SW,224,1.0,8.0,59,0.00,CLR,,0.00,WeatherDisplay:10.37,2013-07-24 09:11:00,
2013-07-24 19:16:00,58.1,44.3,30.21,WSW,244,0.0,6.0,60,0.00,CLR,,0.00,WeatherDisplay:10.37,2013-07-24 09:16:00,
2013-07-24 19:21:00,58.1,44.2,30.22,WSW,248,0.0,5.0,60,0.00,CLR,,0.00,WeatherDisplay:10.37,2013-07-24 09:21:00,
2013-07-24 19:26:00,58.0,44.2,30.22,WSW,237,0.0,2.0,60,0.00,CLR,,0.00,WeatherDisplay:10.37,2013-07-24 09:26:00,
2013-07-24 19:31:00,58.1,44.3,30.22,SW,227,3.0,8.0,60,0.00,CLR,,0.00,WeatherDisplay:10.37,2013-07-24 09:31:00,
2013-07-24 19:36:00,58.0,44.2,30.21,WSW,240,2.0,5.0,60,0.00,CLR,,0.00,WeatherDisplay:10.37,2013-07-24 09:36:00,
2013-07-24 19:41:00,58.1,43.8,30.21,WSW,258,0.0,4.0,59,0.00,CLR,,0.00,WeatherDisplay:10.37,2013-07-24 09:41:00,
2013-07-24 19:46:00,57.9,43.7,30.21,WSW,253,0.0,3.0,59,0.00,CLR,,0.00,WeatherDisplay:10.37,2013-07-24 09:46:00,
2013-07-24 19:52:00,57.9,44.1,30.21,West,269,0.0,2.0,60,0.00,CLR,,0.00,WeatherDisplay:10.37,2013-07-24 09:52:00,
2013-07-24 19:56:00,57.7,43.9,30.21,West,262,0.0,2.0,60,0.00,CLR,,0.00,WeatherDisplay:10.37,2013-07-24 09:56:00,
2013-07-24 20:01:00,57.6,43.8,30.22,WSW,255,0.0,0.0,60,0.00,CLR,,0.00,WeatherDisplay:10.37,2013-07-24 10:01:00,
2013-07-24 20:06:00,57.6,43.8,30.21,WSW,247,0.0,0.0,60,0.00,CLR,,0.00,WeatherDisplay:10.37,2013-07-24 10:06:00,
2013-07-24 20:11:00,57.4,43.6,30.22,WSW,254,0.0,3.0,60,0.00,CLR,,0.00,WeatherDisplay:10.37,2013-07-24 10:11:00,
2013-07-24 20:16:00,57.4,43.6,30.21,West,264,0.0,3.0,60,0.00,CLR,,0.00,WeatherDisplay:10.37,2013-07-24 10:16:00,
2013-07-24 20:21:00,57.2,43.4,30.21,West,265,1.0,5.0,60,0.00,CLR,,0.00,WeatherDisplay:10.37,2013-07-24 10:21:00,
2013-07-24 20:26:00,57.0,43.7,30.22,West,262,1.0,5.0,61,0.00,CLR,,0.00,WeatherDisplay:10.37,2013-07-24 10:26:00,
2013-07-24 20:31:00,56.9,43.6,30.22,WSW,258,0.0,1.0,61,0.00,CLR,,0.00,WeatherDisplay:10.37,2013-07-24 10:31:00,
2013-07-24 20:36:00,56.8,43.5,30.22,WSW,247,0.0,0.0,61,0.00,CLR,,0.00,WeatherDisplay:10.37,2013-07-24 10:36:00,
2013-07-24 20:41:00,56.8,43.5,30.22,WSW,247,1.0,6.0,61,0.00,CLR,,0.00,WeatherDisplay:10.37,2013-07-24 10:41:00,
2013-07-24 20:46:00,56.5,43.2,30.22,WSW,255,0.0,6.0,61,0.00,CLR,,0.00,WeatherDisplay:10.37,2013-07-24 10:46:00,
2013-07-24 20:51:00,56.3,43.0,30.22,WSW,237,0.0,5.0,61,0.00,CLR,,0.00,WeatherDisplay:10.37,2013-07-24 10:51:00,
2013-07-24 20:56:00,56.1,42.8,30.22,SW,227,0.0,5.0,61,0.00,CLR,,0.00,WeatherDisplay:10.37,2013-07-24 10:56:00,
2013-07-24 21:01:00,56.1,42.8,30.22,SW,230,0.0,0.0,61,0.00,CLR,,0.00,WeatherDisplay:10.37,2013-07-24 11:01:00,
2013-07-24 21:06:00,55.9,42.7,30.22,SW,229,0.0,0.0,61,0.00,CLR,,0.00,WeatherDisplay:10.37,2013-07-24 11:06:00,
2013-07-24 21:11:00,55.9,42.7,30.22,SW,231,0.0,3.0,61,0.00,CLR,,0.00,WeatherDisplay:10.37,2013-07-24 11:11:00,
2013-07-24 21:16:00,55.9,42.7,30.22,SW,232,0.0,4.0,61,0.00,CLR,,0.00,WeatherDisplay:10.37,2013-07-24 11:16:00,
2013-07-24 21:26:00,55.7,42.5,30.22,WSW,250,0.0,2.0,61,0.00,CLR,,0.00,WeatherDisplay:10.37,2013-07-24 11:26:00,
2013-07-24 21:31:00,55.6,42.3,30.22,WSW,242,0.0,5.0,61,0.00,CLR,,0.00,WeatherDisplay:10.37,2013-07-24 11:31:00,
2013-07-24 21:36:00,55.4,42.2,30.21,SW,234,0.0,4.0,61,0.00,CLR,,0.00,WeatherDisplay:10.37,2013-07-24 11:36:00,
2013-07-24 21:42:00,55.2,42.0,30.22,WSW,243,0.0,2.0,61,0.00,CLR,,0.00,WeatherDisplay:10.37,2013-07-24 11:42:00,
2013-07-24 21:46:00,55.2,42.0,30.22,SW,231,0.0,2.0,61,0.00,CLR,,0.00,WeatherDisplay:10.37,2013-07-24 11:46:00,
2013-07-24 21:51:00,55.2,42.0,30.22,SW,221,0.0,3.0,61,0.00,CLR,,0.00,WeatherDisplay:10.37,2013-07-24 11:51:00,
2013-07-24 22:01:00,55.0,41.8,30.22,SW,221,0.0,5.0,61,0.00,CLR,,0.00,WeatherDisplay:10.37,2013-07-24 12:01:00,
2013-07-24 22:06:00,55.0,41.8,30.22,SSW,213,0.0,4.0,61,0.00,CLR,,0.00,WeatherDisplay:10.37,2013-07-24 12:06:00,
2013-07-24 22:11:00,54.9,41.7,30.22,SW,233,0.0,6.0,61,0.00,CLR,,0.00,WeatherDisplay:10.37,2013-07-24 12:11:00,
2013-07-24 22:21:00,54.7,41.5,30.21,SW,234,1.0,4.0,61,0.00,CLR,,0.00,WeatherDisplay:10.37,2013-07-24 12:21:00,
2013-07-24 22:26:00,54.7,41.5,30.21,SW,227,1.0,9.0,61,0.00,CLR,,0.00,WeatherDisplay:10.37,2013-07-24 12:26:00,
2013-07-24 22:31:00,54.7,41.5,30.22,SW,216,0.0,9.0,61,0.00,CLR,,0.00,WeatherDisplay:10.37,2013-07-24 12:31:00,
2013-07-24 22:36:00,54.7,41.5,30.22,SSW,212,3.0,9.0,61,0.00,CLR,,0.00,WeatherDisplay:10.37,2013-07-24 12:36:00,
2013-07-24 22:42:00,54.7,41.5,30.21,SW,217,3.0,5.0,61,0.00,CLR,,0.00,WeatherDisplay:10.37,2013-07-24 12:42:00,
2013-07-24 22:51:00,54.5,41.3,30.22,SW,229,1.0,5.0,61,0.00,CLR,,0.00,WeatherDisplay:10.37,2013-07-24 12:51:00,
2013-07-24 22:56:00,54.7,41.5,30.21,WSW,239,0.0,6.0,61,0.00,CLR,,0.00,WeatherDisplay:10.37,2013-07-24 12:56:00,
2013-07-24 23:01:00,54.5,41.3,30.22,SW,234,0.0,3.0,61,0.00,CLR,,0.00,WeatherDisplay:10.37,2013-07-24 13:01:00,
2013-07-24 23:06:00,54.5,41.3,30.22,SW,223,1.0,3.0,61,0.00,CLR,,0.00,WeatherDisplay:10.37,2013-07-24 13:06:00,
2013-07-24 23:11:00,54.5,41.3,30.22,SW,218,1.0,5.0,61,0.00,CLR,,0.00,WeatherDisplay:10.37,2013-07-24 13:11:00,
2013-07-24 23:16:00,54.5,41.3,30.22,SW,219,1.0,6.0,61,0.00,CLR,,0.00,WeatherDisplay:10.37,2013-07-24 13:16:00,
2013-07-24 23:21:00,54.3,41.1,30.22,SW,215,1.0,9.0,61,0.00,CLR,,0.00,WeatherDisplay:10.37,2013-07-24 13:21:00,
2013-07-24 23:26:00,54.3,41.1,30.22,SSW,213,2.0,9.0,61,0.00,CLR,,0.00,WeatherDisplay:10.37,2013-07-24 13:26:00,
2013-07-24 23:31:00,54.3,41.1,30.22,SW,216,1.0,6.0,61,0.00,CLR,,0.00,WeatherDisplay:10.37,2013-07-24 13:31:00,
2013-07-24 23:36:00,54.3,41.1,30.22,SW,220,1.0,5.0,61,0.00,CLR,,0.00,WeatherDisplay:10.37,2013-07-24 13:36:00,
2013-07-24 23:41:00,54.3,41.1,30.22,SW,219,0.0,5.0,61,0.00,CLR,,0.00,WeatherDisplay:10.37,2013-07-24 13:41:00,
2013-07-24 23:46:00,54.3,41.1,30.22,SW,215,1.0,7.0,61,0.00,CLR,,0.00,WeatherDisplay:10.37,2013-07-24 13:46:00,
2013-07-24 23:52:00,54.2,41.1,30.22,SW,216,0.0,6.0,61,0.00,CLR,,0.00,WeatherDisplay:10.37,2013-07-24 13:52:00,
2013-07-24 23:56:00,54.1,41.0,30.22,SW,215,0.0,5.0,61,0.00,CLR,,0.00,WeatherDisplay:10.37,2013-07-24 13:56:00,